Regional Weather Roundup
Issued by NWS

Home | Current Version | Previous Version | Text Only | Print | Product List | Glossary Off
Versions: 1 2 3 4 5 6 7 8 9 10 11 12 13 14 15 16 17 18 19 20 21 22 23 24 25 26 27 28 29 30 31 32 33 34 35 36 37 38 39 40 41 42 43 44 45 46 47 48 49 50

000
ASUS43 KDMX 310704
RWRIA

WEATHER ROUNDUP FOR IOWA
NATIONAL WEATHER SERVICE DES MOINES IA
  ISSUED BY NWS QUAD CITIES IA IL
100 AM CST SAT JAN 31 2015

NOTE: "FAIR" INDICATES FEW OR NO CLOUDS BELOW 12,000 FEET WITH NO
SIGNIFICANT WEATHER AND/OR OBSTRUCTIONS TO VISIBILITY.

* - THESE STATIONS ARE NOT NWS STATIONS...THUS NOT UNDER NWS
QUALITY CONTROL.  THEY ALSO DO NOT REPORT WEATHER SUCH
AS PRECIPITATION OR FOG.

IAZ001>003-012>014-020>022-031>034-043>046-310800-
   NORTHWEST IOWA

CITY           SKY/WX    TMP DP  RH WIND       PRES   REMARKS
CARROLL *      PTCLDY    30  25  80 SW17      30.18F WCI  18
CHEROKEE *     MOSUNNY   28  26  91 S6        30.16F WCI  22
DENNISON *     PTCLDY    28  27  93 S7        30.18F WCI  21
LE MARS *      PTCLDY    28  27  93 S5        30.16F WCI  23
ORANGE CITY *  CLEAR     27  25  93 S6        30.14F WCI  20
SHELDON *      CLEAR     30  27  86 S9        30.12F WCI  22
SIOUX CITY     MOCLDY    27  24  89 MISG      30.17F
SPENCER        CLEAR     29  24  82 SW9       30.14F WCI  20
STORM LAKE *   PTCLDY    30  25  80 SW8       30.16F WCI  23
$$

IAZ055>058-069>071-079>083-090>094-310800-
   SOUTHWEST IOWA

CITY           SKY/WX    TMP DP  RH WIND       PRES   REMARKS
ATLANTIC *     MOCLDY    32  25  74 S7        30.23S WCI  26
AUDUBON *      MOCLDY    30  25  80 S10       30.21F WCI  21
CLARINDA *     CLOUDY    30  23  74 S3        30.28F
COUNCIL BLFS * CLOUDY    34  27  75 S9        30.21F WCI  26
CRESTON *      CLOUDY    30  21  69 SW14      30.24F WCI  20
HARLAN *       PTCLDY    30  27  86 SW8       30.25F WCI  23
LAMONI         MOCLDY    28  18  66 S10       30.27F WCI  19
RED OAK *      CLOUDY    30  23  74 S6        30.25F WCI  24
SHENANDOAH *   CLOUDY    32  25  74 S6        30.26F WCI  26
$$

IAZ047>049-059>061-072>074-084-310800-
   CENTRAL IOWA

CITY           SKY/WX    TMP DP  RH WIND       PRES   REMARKS
AMES           PTCLDY    25  18  74 S7        30.23F WCI  17
ANKENY *       PTCLDY    28  19  69 S8        30.24F WCI  20
BOONE *        PTCLDY    28  21  74 SW10      30.19F WCI  19
CHARITON *     CLOUDY    28  21  74 S9        30.27F WCI  20
DES MOINES     PTCLDY    27  18  69 S7        30.25F WCI  19
GRINNELL *     CLOUDY    27  19  74 S7        30.26F WCI  19
KNOXVILLE *    MOCLDY    28  18  64 S9        30.25F WCI  20
MARSHALLTOWN   CLEAR     27  17  66 S10       30.22F WCI  17
PELLA *        PTCLDY    28  19  70 SW8       30.28F WCI  20
PERRY *          N/A     27  23  84 S9        30.21F WCI  18
$$

IAZ004>006-015-016-023>025-035-036-310800-
   NORTH CENTRAL IOWA

CITY           SKY/WX    TMP DP  RH WIND       PRES   REMARKS
ALGONA *       CLEAR     25  23  93 S8        30.16F WCI  16
CLARION *      CLEAR     25  23  93 S10       30.18F WCI  15
ESTHERVILLE    CLEAR     27  23  85 SW8       30.13F WCI  19
FORT DODGE *   CLEAR     27  19  74 S9        30.19F WCI  17
MASON CITY     CLEAR     24  19  81 SW9       30.18F WCI  14
WEBSTER CITY * CLEAR     25  25 100 S9        30.18F WCI  15
IOWA FALLS *   FAIR      27  20  75 S10       30.21F WCI  17
$$

IAZ007>011-017>019-026>030-037>042-050>054-066-310800-
   NORTHEAST IOWA

CITY           SKY/WX    TMP DP  RH WIND       PRES   REMARKS
CEDAR RAPIDS   PTCLDY    22  17  81 S7        30.27F WCI  13
CHARLES CITY * CLEAR     23  18  80 S10       30.19F WCI  12
CLINTON *      MOCLDY    21  18  86 S5        30.33F WCI  15
DECORAH *      PTCLDY    23  14  68 VRB6G15   30.19F WCI  16
DUBUQUE        MOCLDY    21  15  78 S10       30.25F WCI  10
MONTICELLO *   CLEAR     19  18  93 S6        30.27F WCI  11
OELWEIN *      CLEAR     21  16  79 S12       30.22F WCI   9
WATERLOO       CLEAR     22  16  78 S7        30.23F WCI  13
$$

IAZ064-065-067-068-078-310800-
   EAST CENTRAL IOWA

CITY           SKY/WX    TMP DP  RH WIND       PRES   REMARKS
DAVENPORT      CLOUDY    26  17  68 SW8       30.32F WCI  18
IOWA CITY      CLOUDY    26  20  77 CALM      30.32F
MT. PLEASANT * CLOUDY    27  21  79 S6        30.32F WCI  20
MUSCATINE *    CLOUDY    28  21  74 S5        30.33F WCI  23
QUAD CITIES    CLOUDY    25  19  78 SW5       30.32F WCI  19
$$

IAZ062-063-075>077-085>089-095>099-310800-
   SOUTHEAST IOWA

CITY           SKY/WX    TMP DP  RH WIND       PRES   REMARKS
BURLINGTON     CLOUDY    28  21  75 SW9       30.32F WCI  19
FAIRFIELD *    CLOUDY    28  19  69 SW7       30.31S WCI  21
FORT MADISON * CLOUDY    28  21  74 SW7       30.33F WCI  21
OTTUMWA        CLOUDY    27  20  75 S5        30.29F WCI  22
WASHINGTON *   CLOUDY    28  25  86 S8        30.30F WCI  20
$$

ABBREVIATIONS USED IN REMARKS
   TC - TEMPERATURES IN CELSIUS
  WCI - WIND CHILL INDEX
   HX - HEAT INDEX
  VSB - VISIBILITY
$$



USA.gov is the U.S. government's official web portal to all federal, state and local government web resources and services.